STARLINK-35929

Satellite information

Favourite Embed

Satellite Type and Status

PAYLOADIN ORBIT

Key statistics

Satellite STARLINK-35929 at a glance.

Uptime

24

Days in orbit

Revolutions

≈ 15.5

Per day

Orbit

LEO

Low Earth Orbit

Inclination

53.2

Latest

Satellite identification and parameters

Extended collection of information and parameters for STARLINK-35929.

Object identification

Identified? True

Debris? False

Object name: STARLINK-35929

International designator: 2025-271J

Object number (NORAD): 66625

Object ID (CCSDS): 66625

Country: UNITED STATES OF AMERICA (US)

Current information (Y/N): Y

Orbital parameters

Period: 92.942 minutes

Inclination: 53.1594 deg

SMA: 6796.773 km

Apoapsis: 419.282 km

Periapsis: 417.995 km

RAAN: 167.2413 deg

Eccentricy: 0.00009473

Argument of periapsis: 76.0732 deg

Mean anomaly: 284.0382 deg

Mean motion: 15.49346579 rev/day

Mean motion (dot): 0.0007467 rev/day2

B* drag term: 0.0013360562 1/REarth

Two-line elements (TLE)

Creation date: Dec. 17, 2025, 2:25 a.m.

Reference frame: TEME

Reference center: EARTH

Epoch: Dec. 16, 2025, 9:56 p.m. UTC

TLE line 0: 0 STARLINK-35929

TLE line 1: 1 66625U 25271J 25350.91418678 .00074670 00000-0 13361-2 0 9991

TLE line 2: 2 66625 53.1594 167.2413 0000947 76.0732 284.0382 15.49346579 4850

Live tracking on map

Real-time ground track for satellite STARLINK-35929.

In-orbit conjunctions

There are no conjunctions computed for STARLINK-35929, at the moment. Check back to stay up to date, as we update our databases every day.

Go to all conjunctions

Associated space launch

A batch of 28 satellites for the Starlink mega-constellation - SpaceX's project for space-based Internet communication system.

STARLINK-35929 was lifted into orbit during the mission ‘Falcon 9 Block 5 | Starlink Group 11-30’, on board a Falcon 9 space rocket.

The launch took place on Nov. 23, 2025, 8:48 a.m. from Space Launch Complex 4E.

For more information about the launch, click the button.

Launch to space Falcon 9 Block 5 | Starlink Group 11-30
Falcon 9 Block 5 | Starlink Group 11-30

Agency: SpaceX

Status: Launch Successful

Launch date: Nov. 23, 2025, 8:48 a.m. UTC

Rocket: Falcon 9

Launch pad: Space Launch Complex 4E

Location: Vandenberg SFB, CA, USA

...

Latest news about this satellite

News about space launch
Live coverage: SpaceX to launch 28 Starlink satellites from Vandenberg on brand new Falcon 9 rocket

Liftoff from Space Launch Complex 4E at Vandenberg Space Force Base, California, is scheduled for 12:34 a.m. PST (3:34 a.m. EST / 0834 UTC).

News about space launch
Launch Roundup: Innospace to debut new rocket, SpaceX to launch five Falcon 9 missions

Another busy week of launches has arrived, with SpaceX planning to launch five Falcon 9… The post Launch Roundup: Innospace to debut new rocket, SpaceX to launch five Falcon 9 missions appeared first on NASASpaceFlight.com.


Newsletter sign-up

Weekly statistics, charts and insights to help you stay on top of the space industry.